GPS BIIF-11 (PRN 10)

Last updated on Tue Jul 01 2025 00:03:13 GMT+0000 (Coordinated Universal Time)

1 41019U 15062A 25181.28307917 -.00000087 00000+0 00000+0 0 9997 2 41019 56.7089 44.3986 0103647 228.0815 131.0843 2.00566875 70773
UTC large
Height (km)
Speed (km/s)
/
Latitude / Longitude
Inclination (degrees)
Orbital Period (minutes)
Azimuth
Elevation
Range (km)
Doppler Factor

Next 0 passes for location: London (51.5072 / 0.1276)

Sorry there are no passes over London.